User: anonymous   Login
Location: Arbon
(43.0005°N, 0.7472°E)
Time: 18:06:34
(UTC+00:00)
Language:

Altair - Orbit

View from above orbital plane
View from above orbital plane
View from above satellite
View from above satellite

Ground track
Ground track

The orbit data is extracted from the following two-line orbital elements,

1 00050U 60009B   20338.27528917 -.00000068  00000-0  17791-3 0  9990
2 00050  47.2322 317.3052 0112843 108.8070 252.4998 12.20113180690835
Epoch (UTC): 03 December 2020 06:36:24
Eccentricity: 0.0112843
inclination: 47.2322°
perigee height: 1502 km
apogee height: 1682 km
right ascension of ascending node: 317.3052°
argument of perigee: 108.8070°
revolutions per day: 12.20113180
mean anomaly at epoch: 252.4998°
orbit number at epoch: 69083

The dashed part of the orbit path shows where the satellite is in the earth's shadow,  

DLR